Time,TemperatureF,DewpointF,PressureIn,WindDirection,WindDirectionDegrees,WindSpeedMPH,WindSpeedGustMPH,Humidity,HourlyPrecipIn,Conditions,Clouds,dailyrainin,SoftwareType,DateUTC
2013-06-19 00:05:00,78.7,74.8,30.03,East,96,0.0,0.0,88,0.00,,,0.00,Wunderground v.1.15,2013-06-19 04:05:00,
2013-06-19 00:10:00,78.6,75.0,30.03,East,96,0.0,0.0,88,0.00,,,0.00,weatherlink.com 1.10,2013-06-19 04:10:00,
2013-06-19 00:15:00,78.3,74.8,30.03,East,96,0.0,0.0,89,0.00,,,0.00,Wunderground v.1.15,2013-06-19 04:15:00,
2013-06-19 00:20:00,78.1,74.6,30.03,East,96,0.0,0.0,89,0.00,,,0.00,Wunderground v.1.15,2013-06-19 04:20:00,
2013-06-19 00:25:00,77.9,74.7,30.03,East,96,0.0,0.0,90,0.00,,,0.00,Wunderground v.1.15,2013-06-19 04:25:00,
2013-06-19 00:35:00,78.1,74.9,30.02,East,96,0.0,0.0,90,0.00,,,0.00,Wunderground v.1.15,2013-06-19 04:35:00,
2013-06-19 00:40:00,78.0,75.2,30.02,East,96,0.0,0.0,91,0.00,,,0.00,Wunderground v.1.15,2013-06-19 04:40:00,
2013-06-19 00:43:00,78.0,75.0,30.02,East,96,0.0,1.0,91,0.00,,,0.00,weatherlink.com 1.10,2013-06-19 04:43:00,
2013-06-19 00:50:00,77.9,75.1,30.02,East,96,0.0,0.0,91,0.00,,,0.00,Wunderground v.1.15,2013-06-19 04:50:00,
2013-06-19 00:55:00,77.8,75.0,30.02,East,96,0.0,0.0,91,0.00,,,0.00,Wunderground v.1.15,2013-06-19 04:55:00,
2013-06-19 00:59:00,77.8,75.0,30.02,East,96,0.0,0.0,92,0.00,,,0.00,weatherlink.com 1.10,2013-06-19 04:59:00,
2013-06-19 01:05:00,77.6,75.1,30.02,East,96,0.0,0.0,92,0.00,,,0.00,Wunderground v.1.15,2013-06-19 05:05:00,
2013-06-19 01:10:00,77.5,75.0,30.02,East,96,0.0,0.0,92,0.00,,,0.00,Wunderground v.1.15,2013-06-19 05:10:00,
2013-06-19 01:15:00,77.2,74.7,30.02,East,96,0.0,0.0,92,0.00,,,0.00,Wunderground v.1.15,2013-06-19 05:15:00,
2013-06-19 01:20:00,77.1,74.6,30.02,East,96,0.0,0.0,92,0.00,,,0.00,Wunderground v.1.15,2013-06-19 05:20:00,
2013-06-19 01:30:00,76.9,74.7,30.02,East,96,0.0,0.0,93,0.00,,,0.00,Wunderground v.1.15,2013-06-19 05:30:00,
2013-06-19 01:35:00,76.6,74.4,30.02,East,96,0.0,0.0,93,0.00,,,0.00,Wunderground v.1.15,2013-06-19 05:35:00,
2013-06-19 01:40:00,76.5,74.3,30.02,East,96,0.0,0.0,93,0.00,,,0.00,Wunderground v.1.15,2013-06-19 05:40:00,
2013-06-19 01:45:00,76.4,74.2,30.03,East,96,0.0,0.0,93,0.00,,,0.00,Wunderground v.1.15,2013-06-19 05:45:00,
2013-06-19 01:55:00,76.3,74.1,30.03,East,96,0.0,0.0,93,0.00,,,0.00,Wunderground v.1.15,2013-06-19 05:55:00,
2013-06-19 02:00:00,76.2,74.0,30.03,East,96,0.0,0.0,93,0.00,,,0.00,Wunderground v.1.15,2013-06-19 06:00:00,
2013-06-19 02:05:00,76.1,74.2,30.03,East,96,0.0,0.0,94,0.00,,,0.00,Wunderground v.1.15,2013-06-19 06:05:00,
2013-06-19 02:15:00,75.8,73.9,30.03,East,96,0.0,0.0,94,0.00,,,0.00,Wunderground v.1.15,2013-06-19 06:15:00,
2013-06-19 02:20:00,75.8,73.9,30.04,East,96,0.0,0.0,94,0.00,,,0.00,Wunderground v.1.15,2013-06-19 06:20:00,
2013-06-19 02:25:00,75.9,74.4,30.04,East,96,0.0,0.0,95,0.00,,,0.00,Wunderground v.1.15,2013-06-19 06:25:00,
2013-06-19 02:35:00,75.9,74.4,30.04,ENE,67,0.0,1.0,95,0.00,,,0.00,Wunderground v.1.15,2013-06-19 06:35:00,
2013-06-19 02:40:00,76.0,74.5,30.05,ENE,67,0.0,0.0,95,0.00,,,0.00,Wunderground v.1.15,2013-06-19 06:40:00,
2013-06-19 02:50:00,76.1,74.6,30.04,ENE,67,0.0,0.0,95,0.00,,,0.00,Wunderground v.1.15,2013-06-19 06:50:00,
2013-06-19 02:55:00,76.1,74.6,30.04,ENE,66,0.0,0.0,95,0.00,,,0.00,Wunderground v.1.15,2013-06-19 06:55:00,
2013-06-19 03:00:00,75.9,74.4,30.04,ENE,67,0.0,0.0,95,0.00,,,0.00,Wunderground v.1.15,2013-06-19 07:00:00,
2013-06-19 03:05:00,75.9,74.4,30.04,ENE,66,0.0,0.0,95,0.00,,,0.00,Wunderground v.1.15,2013-06-19 07:05:00,
2013-06-19 03:15:00,76.0,74.5,30.04,ENE,67,0.0,0.0,95,0.00,,,0.00,Wunderground v.1.15,2013-06-19 07:15:00,
2013-06-19 03:20:00,76.1,74.6,30.04,ENE,67,0.0,0.0,95,0.00,,,0.00,Wunderground v.1.15,2013-06-19 07:20:00,
2013-06-19 03:25:00,76.3,74.8,30.04,ENE,67,0.0,0.0,95,0.00,,,0.00,Wunderground v.1.15,2013-06-19 07:25:00,
2013-06-19 03:30:00,76.6,75.1,30.05,NNE,30,0.0,3.0,95,0.00,,,0.00,Wunderground v.1.15,2013-06-19 07:30:00,
2013-06-19 03:35:00,77.1,74.9,30.04,North,4,3.0,6.0,93,0.00,,,0.00,Wunderground v.1.15,2013-06-19 07:35:00,
2013-06-19 03:42:00,77.1,75.0,30.04,NNE,28,2.0,10.0,92,0.00,,,0.00,weatherlink.com 1.10,2013-06-19 07:42:00,
2013-06-19 03:50:00,76.7,74.2,30.04,NNE,25,4.0,7.0,92,0.00,,,0.00,Wunderground v.1.15,2013-06-19 07:50:00,
2013-06-19 03:55:00,76.5,74.0,30.03,NE,37,4.0,7.0,92,0.00,,,0.00,Wunderground v.1.15,2013-06-19 07:55:00,
2013-06-19 04:00:00,76.3,73.8,30.03,NE,54,3.0,3.0,92,0.00,,,0.00,Wunderground v.1.15,2013-06-19 08:00:00,
2013-06-19 04:05:00,76.1,73.6,30.03,NE,44,2.0,3.0,92,0.00,,,0.00,Wunderground v.1.15,2013-06-19 08:05:00,
2013-06-19 04:14:00,75.8,73.0,30.03,NE,53,0.0,2.0,92,0.00,,,0.00,weatherlink.com 1.10,2013-06-19 08:14:00,
2013-06-19 04:20:00,75.5,73.3,30.02,NE,52,0.0,0.0,93,0.00,,,0.00,Wunderground v.1.15,2013-06-19 08:20:00,
2013-06-19 04:25:00,75.4,73.2,30.02,NE,53,0.0,0.0,93,0.00,,,0.00,Wunderground v.1.15,2013-06-19 08:25:00,
2013-06-19 04:30:00,75.2,73.0,30.02,NE,52,0.0,0.0,93,0.00,,,0.00,Wunderground v.1.15,2013-06-19 08:30:00,
2013-06-19 04:35:00,74.9,72.7,30.02,ENE,66,0.0,0.0,93,0.00,,,0.00,Wunderground v.1.15,2013-06-19 08:35:00,
2013-06-19 04:45:00,74.7,72.9,30.02,East,80,0.0,0.0,94,0.00,,,0.00,Wunderground v.1.15,2013-06-19 08:45:00,
2013-06-19 04:50:00,74.7,73.2,30.01,East,81,0.0,1.0,95,0.00,,,0.00,Wunderground v.1.15,2013-06-19 08:50:00,
2013-06-19 04:55:00,74.6,73.1,30.01,East,79,0.0,1.0,95,0.00,,,0.00,Wunderground v.1.15,2013-06-19 08:55:00,
2013-06-19 05:00:00,74.6,73.1,30.01,East,80,0.0,0.0,95,0.00,,,0.00,Wunderground v.1.15,2013-06-19 09:00:00,
2013-06-19 05:05:00,74.6,73.1,30.01,East,81,0.0,0.0,95,0.00,,,0.00,Wunderground v.1.15,2013-06-19 09:05:00,
2013-06-19 05:15:00,74.5,73.0,30.02,East,81,0.0,0.0,95,0.00,,,0.00,Wunderground v.1.15,2013-06-19 09:15:00,
2013-06-19 05:20:00,74.5,73.0,30.02,East,80,0.0,0.0,95,0.00,,,0.00,Wunderground v.1.15,2013-06-19 09:20:00,
2013-06-19 05:25:00,74.5,73.0,30.02,East,81,0.0,0.0,95,0.00,,,0.00,Wunderground v.1.15,2013-06-19 09:25:00,
2013-06-19 05:30:00,74.4,72.9,30.02,East,81,0.0,0.0,95,0.00,,,0.00,Wunderground v.1.15,2013-06-19 09:30:00,
2013-06-19 05:36:00,74.2,73.0,30.02,East,81,0.0,0.0,95,0.00,,,0.00,weatherlink.com 1.10,2013-06-19 09:36:00,
2013-06-19 05:45:00,74.2,73.0,30.02,East,81,0.0,1.0,96,0.00,,,0.00,Wunderground v.1.15,2013-06-19 09:45:00,
2013-06-19 05:50:00,74.4,73.2,30.02,East,80,0.0,0.0,96,0.00,,,0.00,Wunderground v.1.15,2013-06-19 09:50:00,
2013-06-19 05:55:00,74.3,73.1,30.02,East,81,0.0,0.0,96,0.00,,,0.00,Wunderground v.1.15,2013-06-19 09:55:00,
2013-06-19 06:05:00,74.2,73.0,30.02,East,80,0.0,0.0,96,0.00,,,0.00,Wunderground v.1.15,2013-06-19 10:05:00,
2013-06-19 06:10:00,74.1,72.9,30.02,East,81,0.0,0.0,96,0.00,,,0.00,Wunderground v.1.15,2013-06-19 10:10:00,
2013-06-19 06:15:00,74.0,72.8,30.02,East,80,0.0,0.0,96,0.00,,,0.00,Wunderground v.1.15,2013-06-19 10:15:00,
2013-06-19 06:25:00,73.8,72.6,30.02,East,80,0.0,0.0,96,0.00,,,0.00,Wunderground v.1.15,2013-06-19 10:25:00,
2013-06-19 06:30:00,73.9,73.0,30.03,East,81,0.0,0.0,97,0.00,,,0.00,Wunderground v.1.15,2013-06-19 10:30:00,
2013-06-19 06:35:00,73.9,73.0,30.03,East,81,0.0,0.0,97,0.00,,,0.00,Wunderground v.1.15,2013-06-19 10:35:00,
2013-06-19 06:40:00,73.9,73.0,30.03,East,81,0.0,0.0,97,0.00,,,0.00,Wunderground v.1.15,2013-06-19 10:40:00,
2013-06-19 06:45:00,73.7,72.5,30.03,NE,51,0.0,0.0,96,0.00,,,0.00,Wunderground v.1.15,2013-06-19 10:45:00,
2013-06-19 06:50:00,73.6,72.4,30.03,ENE,71,0.0,0.0,96,0.00,,,0.00,Wunderground v.1.15,2013-06-19 10:50:00,
2013-06-19 06:58:00,73.5,72.0,30.03,NE,40,1.0,2.0,96,0.00,,,0.00,weatherlink.com 1.10,2013-06-19 10:58:00,
2013-06-19 07:05:00,73.4,72.2,30.03,NE,51,0.0,0.0,96,0.00,,,0.00,Wunderground v.1.15,2013-06-19 11:05:00,
2013-06-19 07:10:00,73.4,72.2,30.03,NE,54,1.0,1.0,96,0.00,,,0.00,Wunderground v.1.15,2013-06-19 11:10:00,
2013-06-19 07:15:00,73.4,72.2,30.03,NE,46,2.0,2.0,96,0.00,,,0.00,Wunderground v.1.15,2013-06-19 11:15:00,
2013-06-19 07:25:00,73.5,72.0,30.03,NNE,22,2.0,3.0,95,0.00,,,0.00,Wunderground v.1.15,2013-06-19 11:25:00,
2013-06-19 07:30:00,73.6,72.1,30.03,NNE,28,2.0,3.0,95,0.00,,,0.00,Wunderground v.1.15,2013-06-19 11:30:00,
2013-06-19 07:35:00,73.9,72.4,30.04,NE,56,2.0,3.0,95,0.00,,,0.00,Wunderground v.1.15,2013-06-19 11:35:00,
2013-06-19 07:40:00,74.1,72.6,30.04,NE,54,2.0,3.0,95,0.00,,,0.00,Wunderground v.1.15,2013-06-19 11:40:00,
2013-06-19 07:45:00,74.3,72.5,30.04,NNE,32,2.0,3.0,94,0.00,,,0.00,Wunderground v.1.15,2013-06-19 11:45:00,
2013-06-19 07:50:00,74.7,72.9,30.04,NE,56,2.0,3.0,94,0.00,,,0.00,Wunderground v.1.15,2013-06-19 11:50:00,
2013-06-19 08:00:00,75.3,72.8,30.05,NE,52,2.0,2.0,92,0.00,,,0.00,Wunderground v.1.15,2013-06-19 12:00:00,
2013-06-19 08:05:00,75.7,72.9,30.04,ENE,58,2.0,2.0,91,0.00,,,0.00,Wunderground v.1.15,2013-06-19 12:05:00,
2013-06-19 08:10:00,76.5,73.3,30.05,North,8,2.0,4.0,90,0.00,,,0.00,Wunderground v.1.15,2013-06-19 12:10:00,
2013-06-19 08:15:00,77.2,73.4,30.05,NE,36,2.0,4.0,88,0.00,,,0.00,Wunderground v.1.15,2013-06-19 12:15:00,
2013-06-19 08:25:00,78.7,74.2,30.06,North,349,2.0,5.0,86,0.00,,,0.00,Wunderground v.1.15,2013-06-19 12:25:00,
2013-06-19 08:30:00,79.2,74.3,30.06,NE,50,2.0,2.0,85,0.00,,,0.00,Wunderground v.1.15,2013-06-19 12:30:00,
2013-06-19 08:35:00,79.9,74.3,30.06,NE,38,2.0,2.0,83,0.00,,,0.00,Wunderground v.1.15,2013-06-19 12:35:00,
2013-06-19 08:40:00,80.6,74.2,30.06,NE,50,2.0,2.0,81,0.00,,,0.00,Wunderground v.1.15,2013-06-19 12:40:00,
2013-06-19 08:50:00,81.2,74.4,30.06,NNE,32,3.0,4.0,80,0.00,,,0.00,Wunderground v.1.15,2013-06-19 12:50:00,
2013-06-19 08:55:00,81.6,74.8,30.06,North,356,3.0,5.0,80,0.00,,,0.00,Wunderground v.1.15,2013-06-19 12:55:00,
2013-06-19 09:00:00,81.7,74.5,30.06,NE,51,3.0,5.0,79,0.00,,,0.00,Wunderground v.1.15,2013-06-19 13:00:00,
2013-06-19 09:05:00,81.9,74.4,30.06,NE,36,3.0,5.0,78,0.00,,,0.00,Wunderground v.1.15,2013-06-19 13:05:00,
2013-06-19 09:15:00,82.8,74.5,30.06,NNE,22,3.0,6.0,76,0.00,,,0.00,Wunderground v.1.15,2013-06-19 13:15:00,
2013-06-19 09:20:00,83.0,74.6,30.06,NNE,23,3.0,5.0,76,0.00,,,0.00,Wunderground v.1.15,2013-06-19 13:20:00,
2013-06-19 09:25:00,83.3,74.9,30.06,NNE,26,3.0,5.0,76,0.00,,,0.00,Wunderground v.1.15,2013-06-19 13:25:00,
2013-06-19 09:35:00,83.9,74.7,30.06,NE,56,3.0,4.0,74,0.00,,,0.00,Wunderground v.1.15,2013-06-19 13:35:00,
2013-06-19 09:40:00,84.4,75.6,30.06,ENE,59,3.0,3.0,75,0.00,,,0.00,Wunderground v.1.15,2013-06-19 13:40:00,
2013-06-19 09:45:00,85.3,75.7,30.06,NE,37,2.0,3.0,73,0.00,,,0.00,Wunderground v.1.15,2013-06-19 13:45:00,
2013-06-19 09:50:00,85.8,75.7,30.06,NNE,25,2.0,4.0,72,0.00,,,0.00,Wunderground v.1.15,2013-06-19 13:50:00,
2013-06-19 09:59:00,86.7,75.0,30.06,North,8,6.0,6.0,69,0.00,,,0.00,weatherlink.com 1.10,2013-06-19 13:59:00,
2013-06-19 10:05:00,86.7,75.7,30.06,NE,37,2.0,3.0,70,0.00,,,0.00,Wunderground v.1.15,2013-06-19 14:05:00,
2013-06-19 10:10:00,86.8,75.0,30.05,NE,49,2.0,2.0,68,0.00,,,0.00,Wunderground v.1.15,2013-06-19 14:10:00,
2013-06-19 10:15:00,87.0,75.6,30.05,NW,313,2.0,3.0,69,0.00,,,0.00,Wunderground v.1.15,2013-06-19 14:15:00,
2013-06-19 10:20:00,87.1,75.3,30.05,WNW,300,3.0,5.0,68,0.00,,,0.00,Wunderground v.1.15,2013-06-19 14:20:00,
2013-06-19 10:30:00,87.8,75.9,30.05,North,360,3.0,3.0,68,0.00,,,0.00,Wunderground v.1.15,2013-06-19 14:30:00,
2013-06-19 10:35:00,88.1,75.8,30.05,NE,53,3.0,3.0,67,0.00,,,0.00,Wunderground v.1.15,2013-06-19 14:35:00,
2013-06-19 10:40:00,88.7,75.9,30.05,NE,36,2.0,2.0,66,0.00,,,0.00,Wunderground v.1.15,2013-06-19 14:40:00,
2013-06-19 10:48:00,88.9,76.0,30.05,NNW,328,3.0,6.0,66,0.00,,,0.00,weatherlink.com 1.10,2013-06-19 14:48:00,
2013-06-19 10:55:00,88.8,76.4,30.05,NNE,27,3.0,3.0,67,0.00,,,0.00,Wunderground v.1.15,2013-06-19 14:55:00,
2013-06-19 11:00:00,88.9,77.0,30.05,NE,53,2.0,2.0,68,0.00,,,0.00,Wunderground v.1.15,2013-06-19 15:00:00,
2013-06-19 11:05:00,88.9,76.1,30.05,NNE,32,2.0,3.0,66,0.00,,,0.00,Wunderground v.1.15,2013-06-19 15:05:00,
2013-06-19 23:35:00,77.0,73.2,30.05,ENE,67,0.0,0.0,88,0.00,,,0.00,Wunderground v.1.15,2013-06-20 03:35:00,
2013-06-19 23:40:00,76.9,73.4,30.06,ENE,67,0.0,0.0,89,0.00,,,0.00,Wunderground v.1.15,2013-06-20 03:40:00,
2013-06-19 23:45:00,76.9,73.4,30.06,NE,55,0.0,2.0,89,0.00,,,0.00,Wunderground v.1.15,2013-06-20 03:45:00,
2013-06-19 23:50:00,77.0,73.5,30.06,NE,55,0.0,2.0,89,0.00,,,0.00,Wunderground v.1.15,2013-06-20 03:50:00,